Regional Weather Roundup
Issued by NWS

Home | Current Version | Previous Version | Graphics & Text | Print | Product List | Glossary On
Versions: 1 2 3 4 5 6 7 8 9 10 11 12 13 14 15 16 17 18 19 20 21 22 23 24 25 26 27 28 29 30 31 32 33 34 35 36 37 38 39 40 41 42 43 44 45 46 47 48 49 50
000
ASUS43 KMPX 020410
RWRMN
WEATHER ROUNDUP FOR MINNESOTA
NATIONAL WEATHER SERVICE TWIN CITIES/CHANHASSEN MN
1100 PM CDT WED OCT 01 2014


NOTE: "FAIR" INDICATES FEW OR NO CLOUDS BELOW 12,000 FEET WITH NO
SIGNIFICANT WEATHER AND/OR OBSTRUCTIONS TO VISIBILITY. N/A MEANS
CURRENT SKY AND/OR WEATHER CONDITIONS ARE NOT AVAILABLE.

MNZ060>063-068>070-020500-
   Twin Cities Metro

CITY           SKY/WX    TMP DP  RH WIND       PRES   REMARKS
TWIN CITIES    CLOUDY    58  57  97 E6        29.83S FOG
ST PAUL        CLOUDY    58  57  97 SE5       29.83S FOG
CRYSTAL        CLOUDY    59  56  89 NE3       29.81F FOG
BLAINE         FOG       59  59 100 CALM      29.82F VSB 1
LAKEVILLE      LGT RAIN  55  55 100 NE5       29.82S
EDEN PRAIRIE   CLOUDY    58  57  97 E6        29.81S FOG
SOUTH ST PAUL    N/A     58  57  95 CALM      29.84R FOG
LAKE ELMO      CLOUDY    57  55  94 CALM      29.84S FOG
$$
MNZ001>005-007-008-013>017-022>024-027-028-020500-
   Northwest Minnesota

CITY           SKY/WX    TMP DP  RH WIND       PRES   REMARKS
BEMIDJI        CLOUDY    56  53  86 SW5       29.76S
HALLOCK        CLOUDY    57  50  77 W8        29.72R
ROSEAU         PTCLDY    55  50  82 SW8       29.71R
WARROAD        MOCLDY    55  52  88 SW6       29.70R
THIEF RVR FALL CLOUDY    57  52  82 SW7       29.75R
CROOKSTON      CLOUDY    57  52  82 W8        29.76R
FOSSTON        CLOUDY    55  52  88 SW8       29.77S
DETROIT LAKES  MOCLDY    55  50  82 SW5       29.81R
PARK RAPIDS    MOCLDY    55  50  83 SW7       29.79R
MAHNOMEN       FAIR      55  49  81 SW7       29.78R
$$
MNZ006-009>011-018-025>026-020500-
   North Central Minnesota

CITY           SKY/WX    TMP DP  RH WIND       PRES   REMARKS
BAUDETTE       CLOUDY    57  53  86 SW9       29.70R
FLAG ISLAND    CLOUDY    57  52  82 SW10      29.66R
INTL FALLS     CLOUDY    54  52  93 VRB6      29.73S
WASKISH        LGT RAIN  57  54  88 CALM      29.74R
BIG FORK       CLOUDY    54  52  94 SW8       29.78R FOG
LONGVILLE      CLOUDY    54  54 100 S5        29.80R FOG
GRAND RAPIDS   CLOUDY   N/A N/A N/A S8        29.79F
CRANE LAKE     CLOUDY    50  48  93 S7        29.78S
ORR            CLOUDY    52  48  87 S8        29.75S FOG
COOK           CLOUDY    52  50  93 S7        29.79S
WALKER         CLOUDY    55  53  95 S5        29.78S
$$
MNZ012-019>021-037-020500-
   Northeast Minnesota

CITY           SKY/WX    TMP DP  RH WIND       PRES   REMARKS
DULUTH         FOG       52  50  93 SW7       29.83R VSB 1/4
ELY            CLOUDY    48  48 100 SW5       29.81R FOG
HIBBING        CLOUDY    51  50  96 CALM      29.80S FOG
EVELETH        CLOUDY    52  52 100 S5        29.81F FOG
DULUTH HARBOR  CLOUDY    54  52  94 SW5       29.84R
TWO HARBORS    CLOUDY    50  46  87 SW5       29.81S FOG
SILVER BAY     FOG       48  48 100 CALM      29.81S VSB 1/2
GRAND MARAIS     N/A     50  49  96 CALM      29.83S
G MARAIS ARPRT MIX PCPN  46  43  87 S3        29.83S VSB<1/4
$$
MNZ029>031-032-039>041-046>048-054>057-064-020500-
   West Central Minnesota

CITY           SKY/WX    TMP DP  RH WIND       PRES   REMARKS
FERGUS FALLS   PTCLDY    54  46  76 SW3       29.82R
WHEATON        CLEAR     52  46  82 SW5       29.85R
MORRIS         CLEAR     52  48  87 W5        29.82R
ALEXANDRIA     PTCLDY    53  49  86 W5        29.83R
ELBOW LAKE     FAIR      51  47  88 SW6       29.82R
WADENA         FAIR      50  48  93 SW3       29.80S
GLENWOOD       PTCLDY    54  50  87 CALM      29.83S
APPLETON       CLEAR     55  48  76 CALM      29.83R
BENSON         CLEAR     54  50  87 CALM      29.83S
ORTONVILLE     CLEAR     54  48  82 NW6       29.83S
MADISON        CLEAR     57  52  82 NW3       29.84R
WILLMAR        FOG       55  54  94 CALM      29.84S VSB 1
$$
MNZ033>034-036-042>043-049>051-058-059-020500-
   Central Minnesota

CITY           SKY/WX    TMP DP  RH WIND       PRES   REMARKS
ST CLOUD       CLOUDY    59  55  87 S6        29.83R
SAUK CENTRE    MOCLDY    52  52  99 S3        29.83S FOG
PAYNESVILLE    FOG       53  53 100 CALM      29.84R VSB 1/2
AITKIN         CLOUDY    55  52  88 S6        29.81R HAZE
PINE RIVER     CLOUDY    54  54 100 S5        29.84R
BRAINERD       CLOUDY    53  53 100 S8        29.82R FOG
STAPLES        PTCLDY    52  50  93 S5        29.81S FOG
LONG PRAIRIE   MOCLDY    50  50 100 CALM      29.83S FOG
LITTLE FALLS   CLOUDY    54  52  94 S6        29.83R
LITCHFIELD     CLOUDY    57  57 100 CALM      29.83S FOG
BUFFALO        CLOUDY    57  55  93 CALM      29.83S FOG
MAPLE LAKE     CLOUDY    58  57  97 CALM      29.84R FOG
$$
MNZ037-044-045-052-053-020500-
   East Central Minnesota

CITY           SKY/WX    TMP DP  RH WIND       PRES   REMARKS
PRINCETON      CLOUDY    57  55  94 SE2       29.83S
MORA           CLOUDY    54  52  94 S3        29.85S FOG
CAMBRIDGE      HAZE      57  50  77 CALM      29.82S VSB 1
RUSH CITY      LGT RAIN  54  53  96 CALM      29.84R
MOOSE LAKE     CLOUDY    52  52 100 S7        29.82R FOG
HINCKLEY       CLOUDY    54  54 100 CALM      29.84R FOG
CLOQUET        CLOUDY    52  50  93 S5        29.82S FOG
MCGREGOR       CLOUDY    54  52  94 S5        29.83R VSB 3/4
$$
MNZ071>073-080-081-089-090-097-098-020500-
   Southwest Minnesota

CITY           SKY/WX    TMP DP  RH WIND       PRES   REMARKS
MONTEVIDEO     CLEAR     57  54  88 N5        29.84R
GRANITE FALLS  CLEAR     51  51 100 NW5       29.84R FOG
CANBY          CLEAR     55  50  85 CALM      29.85S
MARSHALL       CLEAR     57  48  72 N13       29.82S
REDWOOD FALLS  PTCLDY    55  54  96 NW3       29.82R
OLIVIA         FOG       54  52  94 CALM      29.82S VSB 1/2
PIPESTONE      CLEAR     57  50  77 NE7       29.84R
WINDOM         MOCLDY    57  55  94 NE5       29.82S
WORTHINGTON    MOCLDY    55  54  94 CALM      29.83S
JACKSON        MOCLDY    55  54  94 CALM      29.82S
TRACY          PTCLDY    58  56  94 NW6       29.83R
SLAYTON        CLEAR     53  51  93 NW7       29.83S
$$
MNZ065>067-074>077-082>085-091>093-020500-
   South Central Minnesota

CITY           SKY/WX    TMP DP  RH WIND       PRES   REMARKS
MANKATO        CLOUDY    61  55  82 SE9       29.81F
NEW ULM        MOCLDY    57  57 100 CALM      29.81S FOG
ST JAMES       MOCLDY    61  57  88 E5        29.82F FOG
FAIRMONT       CLOUDY    61  55  82 E7        29.82S
GLENCOE        CLOUDY    58  57  99 CALM      29.81S FOG
FARIBAULT      LGT RAIN  61  59  94 SE10      29.81F
OWATONNA       DRIZZLE   59  57  94 CALM      29.85R
WASECA         RAIN      55  52  88 SE6       29.84F
ALBERT LEA     FOG       55  55 100 CALM      29.83S VSB 1/4
$$
MNZ078>079-086>088-094>096-020500-
   Southeast Minnesota

CITY           SKY/WX    TMP DP  RH WIND       PRES   REMARKS
ROCHESTER      CLEAR     54  53  97 S3        29.85R FOG
RED WING       PTCLDY    57  55  94 CALM      29.83R FOG
STANTON        CLOUDY    57  55  93 S6        29.81F FOG
DODGE CENTER   FOG       54  54 100 SE3       29.85R VSB<1/4
WINONA         FOG       55  55 100 CALM      29.83F VSB 1
AUSTIN         PTCLDY    55  54  94 CALM      29.83S FOG
PRESTON        CLEAR     55  53  95 SE3       29.84F FOG
$$
ABBREVIATIONS USED IN REMARKS
   TC - TEMPERATURES IN CELSIUS
  WCI - WIND CHILL INDEX
   HX - HEAT INDEX
  VSB - VISIBILITY
$$



USA.gov is the U.S. government's official web portal to all federal, state and local government web resources and services.